QPF
0.07 0.07 0.07 0.05 0.03 0.03 0.03 0.03 0.02 0.03 0.03 0.03 0.03 0.03 0.02 0.02 0.03 0.02 0.02 0.02 0.01 0.01 0.01 0.01 0.00 0.01 0.01 0.01 0.02 0.02 0.02 0.01 0.01 0.00 0.00 0.00 0.01 0.01 0.01 0.01 0.01 0.01 0.01
0.05 0.06 0.05 0.04 0.04 0.03 0.02 0.02 0.02 0.02 0.03 0.04 0.03 0.02 0.02 0.02 0.02 0.02 0.02 0.02 0.01 0.01 0.01 0.01 0.01 0.01 0.01 0.02 0.02 0.01 0.01 0.01 0.01 0.01 0.01 0.01 0.01 0.01 0.01 0.01 0.02 0.01 0.01
0.04 0.06 0.06 0.06 0.04 0.02 0.01 0.02 0.02 0.02 0.03 0.04 0.04 0.03 0.03 0.03 0.02 0.02 0.01 0.01 0.01 0.01 0.01 0.01 0.01 0.01 0.02 0.02 0.02 0.02 0.02 0.02 0.02 0.01 0.01 0.01 0.01 0.01 0.01 0.01 0.02 0.02 0.01
0.03 0.05 0.05 0.05 0.04 0.02 0.02 0.02 0.02 0.02 0.02 0.04 0.04 0.05 0.05 0.04 0.03 0.02 0.02 0.01 0.01 0.01 0.01 0.01 0.02 0.02 0.02 0.01 0.01 0.02 0.02 0.02 0.02 0.02 0.02 0.01 0.01 0.01 0.01 0.01 0.01 0.01 0.01
0.03 0.04 0.05 0.05 0.05 0.03 0.02 0.02 0.02 0.01 0.02 0.03 0.04 0.04 0.05 0.04 0.03 0.02 0.01 0.01 0.01 0.01 0.01 0.01 0.01 0.02 0.01 0.02 0.01 0.01 0.02 0.01 0.02 0.02 0.02 0.01 0.01 0.01 0.01 0.01 0.01 0.00 0.00
0.03 0.04 0.04 0.04 0.04 0.03 0.02 0.02 0.01 0.02 0.02 0.03 0.04 0.04 0.03 0.03 0.03 0.03 0.02 0.01 0.01 0.01 0.01 0.01 0.01 0.01 0.02 0.03 0.02 0.02 0.02 0.02 0.02 0.02 0.02 0.01 0.01 0.01 0.01 0.01 0.01 0.01 0.00
0.02 0.03 0.04 0.04 0.03 0.03 0.03 0.02 0.02 0.02 0.02 0.03 0.03 0.03 0.03 0.02 0.04 0.04 0.03 0.02 0.01 0.01 0.01 0.01 0.01 0.02 0.03 0.03 0.03 0.03 0.03 0.02 0.02 0.02 0.02 0.02 0.01 0.01 0.01 0.01 0.01 0.01 0.01
0.02 0.02 0.03 0.03 0.03 0.03 0.03 0.03 0.03 0.02 0.02 0.01 0.02 0.03 0.03 0.03 0.04 0.04 0.04 0.03 0.02 0.01 0.01 0.01 0.01 0.01 0.02 0.02 0.03 0.03 0.02 0.02 0.02 0.02 0.03 0.02 0.01 0.00 0.01 0.01 0.01 0.00 0.01
0.03 0.03 0.03 0.04 0.04 0.03 0.03 0.03 0.03 0.02 0.01 0.01 0.01 0.02 0.03 0.04 0.05 0.04 0.04 0.02 0.02 0.02 0.02 0.02 0.02 0.02 0.03 0.03 0.03 0.03 0.02 0.01 0.02 0.02 0.02 0.01 0.01 0.00 0.00 0.01 0.01 0.01 0.01
0.04 0.05 0.06 0.05 0.04 0.03 0.03 0.03 0.03 0.02 0.01 0.01 0.01 0.02 0.02 0.03 0.03 0.03 0.04 0.02 0.01 0.02 0.02 0.02 0.02 0.02 0.03 0.03 0.02 0.02 0.02 0.01 0.01 0.01 0.01 0.01 0.00 0.00 0.00 0.00 0.01 0.01 0.01
0.03 0.04 0.05 0.06 0.06 0.04 0.03 0.02 0.02 0.01 0.02 0.02 0.02 0.02 0.02 0.02 0.02 0.03 0.04 0.02 0.02 0.02 0.02 0.01 0.01 0.02 0.02 0.03 0.02 0.02 0.02 0.02 0.01 0.01 0.01 0.01 0.00 0.00 0.00 0.00 0.00 0.00 0.01
0.02 0.02 0.03 0.04 0.06 0.06 0.03 0.01 0.01 0.01 0.01 0.01 0.03 0.02 0.02 0.02 0.02 0.03 0.04 0.03 0.02 0.02 0.01 0.01 0.01 0.01 0.02 0.02 0.03 0.03 0.03 0.02 0.02 0.01 0.01 0.01 0.01 0.00 0.00 0.00 0.00 0.00 0.00
0.02 0.03 0.03 0.04 0.05 0.07 0.04 0.01 0.01 0.02 0.02 0.03 0.03 0.03 0.02 0.02 0.02 0.02 0.03 0.03 0.02 0.02 0.01 0.01 0.01 0.01 0.02 0.02 0.02 0.02 0.02 0.02 0.02 0.02 0.01 0.01 0.01 0.01 0.01 0.01 0.00 0.00 0.00
0.03 0.03 0.03 0.04 0.04 0.05 0.06 0.02 0.02 0.03 0.03 0.03 0.03 0.04 0.04 0.03 0.03 0.02 0.02 0.02 0.02 0.01 0.01 0.01 0.01 0.01 0.02 0.01 0.02 0.02 0.02 0.02 0.02 0.02 0.02 0.02 0.02 0.02 0.02 0.02 0.01 0.01 0.01
0.03 0.02 0.02 0.03 0.04 0.04 0.05 0.03 0.02 0.02 0.04 0.04 0.03 0.03 0.04 0.04 0.04 0.04 0.03 0.02 0.01 0.01 0.01 0.01 0.01 0.01 0.01 0.01 0.01 0.02 0.02 0.03 0.03 0.03 0.02 0.02 0.02 0.02 0.02 0.02 0.02 0.02 0.02
0.02 0.02 0.02 0.03 0.04 0.04 0.05 0.04 0.04 0.04 0.05 0.06 0.06 0.05 0.04 0.05 0.05 0.04 0.04 0.03 0.02 0.02 0.01 0.01 0.01 0.00 0.00 0.00 0.00 0.01 0.01 0.02 0.03 0.04 0.04 0.04 0.04 0.04 0.04 0.04 0.04 0.04 0.04
0.02 0.02 0.02 0.02 0.02 0.02 0.03 0.04 0.05 0.05 0.05 0.05 0.07 0.07 0.06 0.05 0.05 0.05 0.05 0.05 0.04 0.03 0.02 0.01 0.01 0.01 0.01 0.00 0.00 0.00 0.00 0.01 0.04 0.05 0.05 0.04 0.03 0.02 0.03 0.03 0.03 0.03 0.03
0.03 0.04 0.03 0.03 0.03 0.03 0.03 0.03 0.03 0.03 0.04 0.04 0.06 0.09 0.09 0.07 0.05 0.05 0.05 0.05 0.04 0.04 0.03 0.02 0.02 0.01 0.01 0.01 0.01 0.01 0.01 0.01 0.02 0.03 0.03 0.03 0.02 0.02 0.02 0.02 0.02 0.02 0.02
0.05 0.05 0.04 0.04 0.04 0.05 0.05 0.04 0.04 0.04 0.03 0.03 0.04 0.07 0.09 0.07 0.06 0.05 0.04 0.03 0.03 0.03 0.03 0.03 0.03 0.03 0.02 0.01 0.01 0.00 0.01 0.01 0.01 0.02 0.02 0.01 0.01 0.02 0.02 0.02 0.02 0.02 0.02
0.05 0.05 0.05 0.04 0.04 0.04 0.05 0.05 0.04 0.04 0.04 0.04 0.03 0.05 0.08 0.09 0.06 0.04 0.03 0.03 0.03 0.02 0.02 0.02 0.02 0.03 0.02 0.02 0.02 0.01 0.01 0.00 0.01 0.01 0.02 0.02 0.02 0.02 0.02 0.02 0.02 0.03 0.02
0.04 0.04 0.04 0.04 0.04 0.03 0.04 0.04 0.03 0.03 0.04 0.05 0.04 0.05 0.07 0.08 0.07 0.05 0.03 0.02 0.03 0.03 0.02 0.02 0.02 0.03 0.03 0.03 0.03 0.03 0.02 0.02 0.01 0.01 0.01 0.01 0.02 0.02 0.01 0.02 0.02 0.02 0.03
0.03 0.03 0.02 0.03 0.04 0.04 0.03 0.03 0.03 0.03 0.03 0.04 0.04 0.05 0.07 0.07 0.06 0.05 0.03 0.02 0.03 0.03 0.04 0.04 0.03 0.03 0.03 0.04 0.04 0.03 0.03 0.02 0.02 0.02 0.01 0.01 0.01 0.01 0.01 0.01 0.01 0.02 0.03
0.03 0.03 0.02 0.02 0.01 0.02 0.02 0.02 0.03 0.03 0.04 0.03 0.04 0.04 0.05 0.06 0.06 0.05 0.04 0.04 0.04 0.04 0.04 0.04 0.03 0.02 0.02 0.02 0.02 0.02 0.02 0.02 0.02 0.02 0.02 0.02 0.02 0.02 0.02 0.02 0.02 0.02 0.03
0.05 0.04 0.03 0.02 0.02 0.02 0.01 0.01 0.02 0.02 0.03 0.03 0.03 0.03 0.03 0.04 0.05 0.04 0.04 0.04 0.04 0.03 0.03 0.03 0.02 0.02 0.02 0.02 0.02 0.02 0.03 0.03 0.03 0.03 0.03 0.02 0.02 0.02 0.02 0.02 0.02 0.02 0.02
0.04 0.04 0.04 0.03 0.02 0.02 0.02 0.02 0.02 0.02 0.02 0.03 0.03 0.03 0.04 0.04 0.03 0.04 0.04 0.04 0.05 0.04 0.04 0.04 0.04 0.03 0.03 0.04 0.04 0.04 0.04 0.04 0.04 0.03 0.03 0.03 0.03 0.02 0.02 0.01 0.01 0.02 0.02
0.03 0.03 0.03 0.03 0.03 0.03 0.01 0.01 0.01 0.01 0.02 0.03 0.04 0.04 0.03 0.03 0.04 0.04 0.04 0.04 0.04 0.05 0.05 0.05 0.05 0.05 0.05 0.05 0.06 0.07 0.06 0.05 0.05 0.05 0.04 0.03 0.03 0.03 0.02 0.02 0.02 0.01 0.02
MSLP
1010.01 1010.51 1010.99 1011.42 1011.80 1012.10 1012.33 1012.50 1012.62 1012.71 1012.79 1012.87 1012.95 1013.04 1013.14 1013.25 1013.37 1013.50 1013.63 1013.78 1013.93 1014.07 1014.18 1014.25 1014.27 1014.23 1014.11 1013.92 1013.67 1013.37 1013.05 1012.73 1012.42 1012.14 1011.89 1011.68 1011.49 1011.32 1011.15 1010.96 1010.77 1010.55 1010.31
1010.37 1010.81 1011.20 1011.53 1011.80 1012.00 1012.14 1012.24 1012.31 1012.37 1012.44 1012.52 1012.62 1012.74 1012.87 1013.02 1013.17 1013.33 1013.50 1013.66 1013.82 1013.95 1014.06 1014.13 1014.14 1014.08 1013.96 1013.78 1013.54 1013.27 1012.98 1012.69 1012.42 1012.18 1011.96 1011.78 1011.61 1011.44 1011.27 1011.09 1010.88 1010.65 1010.40
1010.51 1010.90 1011.21 1011.46 1011.64 1011.75 1011.83 1011.87 1011.92 1011.97 1012.06 1012.16 1012.31 1012.47 1012.65 1012.83 1013.03 1013.22 1013.41 1013.58 1013.75 1013.89 1014.00 1014.06 1014.08 1014.03 1013.92 1013.76 1013.54 1013.30 1013.04 1012.78 1012.53 1012.31 1012.11 1011.93 1011.77 1011.60 1011.43 1011.24 1011.04 1010.81 1010.57
1010.41 1010.75 1011.00 1011.19 1011.30 1011.36 1011.39 1011.42 1011.46 1011.54 1011.65 1011.81 1012.01 1012.23 1012.46 1012.70 1012.93 1013.15 1013.36 1013.55 1013.71 1013.86 1013.97 1014.04 1014.07 1014.04 1013.96 1013.82 1013.64 1013.43 1013.20 1012.96 1012.73 1012.52 1012.32 1012.14 1011.98 1011.81 1011.64 1011.46 1011.27 1011.06 1010.85
1010.10 1010.39 1010.60 1010.74 1010.80 1010.83 1010.85 1010.88 1010.95 1011.07 1011.24 1011.47 1011.73 1012.02 1012.31 1012.59 1012.86 1013.11 1013.33 1013.52 1013.69 1013.84 1013.96 1014.04 1014.08 1014.08 1014.03 1013.93 1013.79 1013.61 1013.41 1013.20 1012.99 1012.78 1012.58 1012.40 1012.23 1012.07 1011.91 1011.75 1011.59 1011.42 1011.25
1009.69 1009.94 1010.10 1010.19 1010.23 1010.25 1010.27 1010.32 1010.43 1010.60 1010.83 1011.13 1011.46 1011.81 1012.16 1012.49 1012.79 1013.05 1013.28 1013.48 1013.65 1013.80 1013.92 1014.02 1014.09 1014.11 1014.10 1014.04 1013.94 1013.80 1013.63 1013.44 1013.25 1013.05 1012.86 1012.68 1012.51 1012.36 1012.22 1012.10 1011.97 1011.86 1011.75
1009.32 1009.51 1009.62 1009.68 1009.69 1009.69 1009.71 1009.78 1009.92 1010.14 1010.43 1010.78 1011.17 1011.57 1011.97 1012.33 1012.66 1012.94 1013.18 1013.38 1013.55 1013.71 1013.84 1013.96 1014.05 1014.11 1014.14 1014.12 1014.06 1013.96 1013.83 1013.66 1013.48 1013.30 1013.11 1012.95 1012.79 1012.67 1012.55 1012.47 1012.39 1012.33 1012.29
1009.12 1009.24 1009.31 1009.31 1009.28 1009.26 1009.26 1009.33 1009.48 1009.71 1010.03 1010.41 1010.83 1011.27 1011.69 1012.08 1012.43 1012.73 1012.98 1013.20 1013.39 1013.55 1013.71 1013.84 1013.97 1014.07 1014.13 1014.16 1014.14 1014.07 1013.97 1013.83 1013.67 1013.51 1013.34 1013.18 1013.05 1012.94 1012.86 1012.81 1012.78 1012.76 1012.77
1009.20 1009.26 1009.24 1009.18 1009.10 1009.02 1008.98 1009.01 1009.13 1009.35 1009.65 1010.03 1010.45 1010.89 1011.32 1011.73 1012.09 1012.41 1012.69 1012.92 1013.14 1013.33 1013.52 1013.69 1013.85 1013.99 1014.09 1014.16 1014.17 1014.15 1014.07 1013.96 1013.82 1013.67 1013.51 1013.37 1013.24 1013.15 1013.09 1013.07 1013.07 1013.09 1013.13
1009.60 1009.57 1009.48 1009.34 1009.17 1009.01 1008.90 1008.85 1008.90 1009.05 1009.30 1009.63 1010.02 1010.44 1010.86 1011.27 1011.65 1011.99 1012.30 1012.57 1012.83 1013.07 1013.30 1013.52 1013.72 1013.89 1014.04 1014.14 1014.19 1014.19 1014.14 1014.04 1013.92 1013.78 1013.63 1013.49 1013.37 1013.28 1013.23 1013.21 1013.22 1013.25 1013.31
1010.28 1010.17 1009.99 1009.75 1009.48 1009.23 1009.01 1008.86 1008.80 1008.85 1009.01 1009.25 1009.58 1009.95 1010.34 1010.74 1011.12 1011.49 1011.84 1012.17 1012.48 1012.78 1013.06 1013.33 1013.58 1013.80 1013.98 1014.11 1014.19 1014.21 1014.18 1014.09 1013.98 1013.83 1013.69 1013.54 1013.42 1013.32 1013.26 1013.23 1013.23 1013.26 1013.30
1011.13 1010.95 1010.68 1010.35 1009.99 1009.61 1009.28 1009.01 1008.83 1008.75 1008.79 1008.93 1009.16 1009.46 1009.81 1010.19 1010.58 1010.97 1011.36 1011.74 1012.11 1012.47 1012.82 1013.14 1013.44 1013.70 1013.91 1014.07 1014.16 1014.20 1014.18 1014.10 1013.98 1013.84 1013.68 1013.53 1013.39 1013.27 1013.19 1013.13 1013.11 1013.11 1013.14
1012.04 1011.79 1011.45 1011.04 1010.58 1010.11 1009.66 1009.27 1008.96 1008.76 1008.67 1008.69 1008.82 1009.04 1009.34 1009.68 1010.07 1010.48 1010.90 1011.33 1011.75 1012.17 1012.56 1012.93 1013.27 1013.56 1013.80 1013.97 1014.08 1014.12 1014.11 1014.03 1013.92 1013.77 1013.61 1013.44 1013.29 1013.15 1013.03 1012.95 1012.90 1012.87 1012.87
1012.88 1012.58 1012.19 1011.71 1011.18 1010.63 1010.09 1009.60 1009.19 1008.87 1008.66 1008.57 1008.60 1008.74 1008.96 1009.27 1009.63 1010.04 1010.48 1010.93 1011.39 1011.84 1012.27 1012.67 1013.03 1013.34 1013.59 1013.77 1013.89 1013.94 1013.93 1013.86 1013.75 1013.61 1013.45 1013.28 1013.11 1012.96 1012.82 1012.71 1012.63 1012.58 1012.56
1013.56 1013.23 1012.79 1012.28 1011.72 1011.12 1010.53 1009.97 1009.48 1009.07 1008.77 1008.59 1008.52 1008.57 1008.73 1008.97 1009.29 1009.67 1010.10 1010.55 1011.01 1011.47 1011.91 1012.32 1012.68 1012.99 1013.24 1013.42 1013.54 1013.60 1013.60 1013.55 1013.45 1013.33 1013.18 1013.02 1012.86 1012.71 1012.57 1012.45 1012.35 1012.28 1012.24
1014.03 1013.67 1013.23 1012.71 1012.14 1011.53 1010.93 1010.35 1009.81 1009.35 1008.98 1008.72 1008.57 1008.54 1008.61 1008.79 1009.04 1009.37 1009.75 1010.17 1010.60 1011.03 1011.45 1011.83 1012.17 1012.47 1012.70 1012.88 1013.00 1013.07 1013.08 1013.06 1012.99 1012.90 1012.79 1012.66 1012.53 1012.40 1012.27 1012.16 1012.07 1012.00 1011.94
1014.31 1013.94 1013.49 1012.99 1012.44 1011.86 1011.27 1010.69 1010.15 1009.66 1009.24 1008.92 1008.70 1008.58 1008.57 1008.66 1008.84 1009.09 1009.40 1009.75 1010.13 1010.51 1010.87 1011.21 1011.51 1011.78 1011.99 1012.16 1012.28 1012.36 1012.40 1012.41 1012.39 1012.34 1012.28 1012.21 1012.12 1012.03 1011.95 1011.86 1011.79 1011.72 1011.67
1014.45 1014.06 1013.63 1013.15 1012.63 1012.09 1011.53 1010.97 1010.43 1009.93 1009.48 1009.11 1008.82 1008.62 1008.52 1008.52 1008.61 1008.77 1009.00 1009.27 1009.57 1009.88 1010.18 1010.47 1010.73 1010.95 1011.14 1011.30 1011.42 1011.51 1011.58 1011.63 1011.67 1011.68 1011.69 1011.68 1011.66 1011.63 1011.59 1011.55 1011.50 1011.45 1011.41
1014.51 1014.11 1013.69 1013.23 1012.74 1012.23 1011.70 1011.16 1010.62 1010.10 1009.62 1009.19 1008.84 1008.56 1008.38 1008.28 1008.28 1008.35 1008.50 1008.69 1008.92 1009.17 1009.42 1009.65 1009.87 1010.06 1010.23 1010.37 1010.50 1010.61 1010.72 1010.81 1010.90 1010.98 1011.05 1011.11 1011.16 1011.20 1011.22 1011.22 1011.21 1011.19 1011.15
1014.55 1014.14 1013.71 1013.26 1012.78 1012.28 1011.76 1011.21 1010.66 1010.11 1009.58 1009.09 1008.67 1008.31 1008.05 1007.87 1007.79 1007.80 1007.88 1008.02 1008.20 1008.41 1008.62 1008.83 1009.02 1009.20 1009.35 1009.50 1009.64 1009.77 1009.90 1010.04 1010.18 1010.31 1010.45 1010.58 1010.69 1010.79 1010.86 1010.91 1010.94 1010.94 1010.92
1014.62 1014.18 1013.73 1013.27 1012.77 1012.25 1011.70 1011.12 1010.52 1009.91 1009.32 1008.76 1008.25 1007.83 1007.50 1007.27 1007.14 1007.10 1007.16 1007.28 1007.45 1007.65 1007.87 1008.08 1008.28 1008.46 1008.63 1008.78 1008.94 1009.09 1009.24 1009.41 1009.59 1009.77 1009.95 1010.13 1010.30 1010.45 1010.57 1010.66 1010.72 1010.75 1010.75
1014.72 1014.25 1013.77 1013.26 1012.72 1012.14 1011.53 1010.87 1010.19 1009.50 1008.82 1008.18 1007.61 1007.12 1006.74 1006.48 1006.33 1006.30 1006.37 1006.52 1006.73 1006.98 1007.23 1007.49 1007.72 1007.94 1008.14 1008.32 1008.48 1008.65 1008.83 1009.02 1009.21 1009.42 1009.64 1009.85 1010.06 1010.24 1010.40 1010.53 1010.62 1010.66 1010.68
1014.86 1014.35 1013.82 1013.25 1012.64 1011.98 1011.26 1010.51 1009.72 1008.93 1008.16 1007.43 1006.79 1006.26 1005.86 1005.59 1005.47 1005.49 1005.62 1005.84 1006.14 1006.46 1006.80 1007.14 1007.44 1007.71 1007.95 1008.17 1008.36 1008.54 1008.72 1008.91 1009.12 1009.34 1009.56 1009.79 1010.01 1010.22 1010.40 1010.55 1010.66 1010.73 1010.76
1015.02 1014.47 1013.89 1013.25 1012.55 1011.79 1010.97 1010.11 1009.21 1008.32 1007.45 1006.65 1005.96 1005.40 1005.00 1004.77 1004.70 1004.79 1005.01 1005.34 1005.75 1006.19 1006.64 1007.07 1007.46 1007.81 1008.10 1008.35 1008.56 1008.76 1008.94 1009.12 1009.32 1009.53 1009.74 1009.97 1010.19 1010.40 1010.60 1010.76 1010.88 1010.97 1011.02
1015.18 1014.61 1013.98 1013.28 1012.50 1011.65 1010.74 1009.77 1008.78 1007.80 1006.86 1006.01 1005.29 1004.73 1004.35 1004.16 1004.17 1004.35 1004.68 1005.13 1005.65 1006.22 1006.78 1007.31 1007.79 1008.21 1008.55 1008.84 1009.07 1009.27 1009.45 1009.62 1009.79 1009.98 1010.17 1010.38 1010.59 1010.79 1010.98 1011.15 1011.28 1011.37 1011.43
1015.35 1014.77 1014.11 1013.37 1012.55 1011.63 1010.65 1009.62 1008.56 1007.53 1006.55 1005.68 1004.96 1004.42 1004.08 1003.95 1004.03 1004.30 1004.72 1005.28 1005.91 1006.57 1007.23 1007.85 1008.40 1008.88 1009.27 1009.58 1009.83 1010.02 1010.19 1010.33 1010.48 1010.63 1010.80 1010.97 1011.16 1011.34 1011.51 1011.67 1011.79 1011.89 1011.94
Thickness
5707 5706 5706 5706 5705 5703 5702 5701 5701 5701 5701 5701 5700 5699 5698 5697 5696 5695 5695 5694 5693 5693 5692 5692 5691 5691 5691 5690 5689 5687 5686 5684 5681 5682 5681 5682 5682 5682 5682 5682 5682 5681 5682
5703 5702 5701 5701 5700 5699 5699 5699 5699 5698 5698 5698 5697 5696 5695 5694 5694 5693 5692 5692 5691 5691 5690 5689 5689 5689 5688 5687 5686 5684 5683 5682 5680 5678 5678 5678 5678 5679 5679 5678 5678 5678 5679
5698 5697 5695 5695 5695 5695 5695 5695 5695 5695 5694 5694 5694 5693 5692 5692 5691 5691 5690 5690 5689 5689 5689 5688 5687 5686 5685 5684 5683 5682 5681 5680 5678 5676 5675 5674 5674 5675 5675 5675 5675 5675 5676
5693 5691 5690 5690 5690 5691 5691 5690 5690 5690 5689 5689 5689 5690 5689 5689 5688 5688 5687 5687 5687 5687 5687 5686 5685 5685 5684 5683 5682 5680 5678 5676 5675 5673 5672 5671 5670 5671 5670 5670 5670 5671 5672
5687 5686 5686 5685 5685 5686 5685 5685 5685 5685 5685 5685 5685 5686 5686 5686 5686 5685 5685 5684 5683 5683 5683 5683 5683 5683 5682 5681 5680 5678 5676 5674 5672 5670 5669 5668 5667 5666 5667 5667 5666 5667 5668
5681 5681 5681 5680 5680 5680 5681 5681 5681 5681 5681 5681 5681 5682 5682 5684 5684 5683 5682 5681 5680 5679 5679 5679 5680 5680 5679 5678 5678 5677 5676 5673 5671 5668 5667 5666 5666 5665 5665 5664 5663 5662 5663
5674 5674 5674 5674 5674 5675 5675 5675 5676 5676 5676 5676 5677 5677 5678 5680 5680 5679 5678 5677 5677 5676 5676 5676 5676 5677 5676 5675 5675 5674 5673 5672 5671 5669 5667 5666 5665 5665 5663 5661 5660 5659 5660
5668 5668 5669 5669 5669 5669 5669 5669 5670 5671 5671 5671 5672 5673 5673 5675 5674 5674 5673 5673 5672 5672 5673 5673 5672 5672 5672 5671 5671 5670 5670 5670 5669 5668 5667 5667 5666 5665 5662 5661 5659 5657 5657
5661 5662 5663 5663 5663 5663 5663 5663 5664 5665 5666 5666 5667 5668 5669 5670 5670 5669 5668 5667 5667 5667 5668 5669 5669 5668 5668 5667 5667 5666 5666 5666 5666 5666 5665 5664 5663 5661 5659 5657 5655 5653 5653
5655 5656 5657 5657 5658 5657 5657 5658 5659 5660 5661 5661 5662 5663 5664 5665 5664 5664 5662 5662 5662 5662 5663 5664 5664 5664 5664 5662 5662 5662 5661 5662 5663 5663 5662 5661 5660 5658 5656 5654 5654 5651 5650
5650 5651 5651 5652 5652 5652 5652 5653 5653 5654 5655 5655 5656 5658 5658 5659 5659 5658 5657 5658 5658 5658 5659 5660 5660 5660 5659 5658 5658 5658 5659 5659 5659 5658 5658 5657 5656 5655 5654 5652 5651 5649 5648
5644 5645 5645 5645 5646 5647 5646 5647 5648 5648 5649 5649 5649 5651 5652 5653 5653 5653 5652 5653 5653 5653 5654 5655 5656 5654 5654 5653 5653 5654 5654 5653 5653 5653 5652 5652 5652 5652 5651 5650 5648 5647 5646
5635 5636 5637 5638 5638 5640 5640 5641 5641 5642 5643 5643 5643 5644 5646 5647 5648 5648 5648 5647 5647 5648 5649 5650 5649 5649 5648 5648 5648 5648 5648 5648 5648 5648 5648 5649 5649 5648 5647 5646 5645 5643 5642
5626 5627 5629 5629 5630 5632 5634 5635 5635 5636 5637 5637 5638 5639 5640 5641 5642 5643 5643 5642 5642 5641 5642 5643 5642 5641 5642 5642 5643 5643 5644 5644 5644 5645 5645 5645 5644 5643 5642 5641 5640 5640 5639
5618 5619 5621 5622 5623 5624 5626 5628 5630 5631 5633 5633 5635 5635 5636 5637 5638 5638 5638 5638 5638 5637 5637 5636 5636 5636 5636 5636 5637 5638 5638 5638 5638 5639 5639 5639 5638 5637 5637 5636 5635 5634 5634
5609 5611 5613 5614 5616 5617 5619 5621 5624 5626 5627 5629 5630 5631 5632 5633 5633 5632 5632 5632 5631 5631 5631 5632 5631 5631 5631 5632 5632 5632 5632 5633 5634 5634 5633 5633 5633 5632 5631 5630 5629 5628 5628
5602 5603 5605 5607 5608 5610 5612 5614 5616 5619 5621 5623 5625 5625 5626 5626 5626 5626 5625 5624 5624 5624 5625 5627 5627 5627 5627 5627 5627 5627 5627 5628 5628 5627 5627 5628 5628 5627 5626 5625 5624 5623 5622
5594 5596 5597 5599 5601 5603 5605 5607 5609 5611 5614 5616 5618 5618 5619 5620 5620 5619 5617 5616 5616 5617 5619 5621 5622 5622 5622 5622 5622 5622 5622 5622 5622 5622 5622 5622 5621 5621 5620 5619 5618 5618 5618
5587 5588 5590 5592 5594 5596 5598 5600 5602 5604 5606 5608 5610 5611 5611 5612 5612 5611 5610 5613 5614 5615 5615 5616 5617 5617 5617 5617 5616 5616 5616 5616 5616 5616 5616 5616 5616 5615 5614 5614 5614 5612 5611
5580 5582 5583 5585 5587 5588 5590 5592 5594 5596 5598 5601 5603 5604 5604 5605 5606 5605 5605 5607 5609 5611 5611 5611 5612 5612 5612 5612 5611 5610 5610 5610 5611 5611 5611 5610 5610 5609 5609 5608 5608 5607 5607
5572 5574 5575 5577 5578 5580 5581 5584 5586 5588 5590 5593 5595 5596 5597 5598 5599 5600 5601 5602 5604 5605 5605 5605 5606 5606 5606 5606 5605 5604 5604 5604 5604 5604 5604 5604 5604 5603 5603 5603 5602 5602 5602
5565 5567 5568 5569 5570 5572 5574 5575 5577 5580 5582 5585 5587 5589 5588 5590 5592 5593 5595 5596 5597 5598 5599 5599 5600 5600 5600 5600 5599 5598 5597 5597 5597 5597 5597 5597 5597 5597 5597 5596 5596 5596 5596
5558 5559 5560 5562 5563 5564 5566 5568 5570 5572 5574 5577 5579 5581 5582 5583 5585 5586 5587 5588 5589 5590 5591 5592 5592 5592 5592 5592 5592 5592 5591 5591 5590 5590 5590 5589 5589 5590 5590 5590 5590 5590 5590
5551 5552 5553 5555 5556 5557 5559 5561 5563 5565 5567 5569 5571 5574 5575 5576 5578 5579 5580 5580 5581 5582 5583 5583 5584 5584 5584 5584 5584 5584 5584 5584 5583 5583 5583 5583 5583 5583 5583 5583 5583 5583 5583
5543 5544 5546 5547 5549 5550 5551 5553 5555 5557 5559 5562 5564 5566 5568 5569 5571 5572 5573 5573 5574 5574 5574 5575 5575 5575 5576 5576 5576 5576 5576 5575 5575 5575 5575 5575 5576 5576 5576 5576 5576 5575 5575
5536 5537 5538 5540 5541 5542 5544 5546 5547 5550 5552 5555 5557 5559 5561 5562 5563 5564 5565 5565 5565 5566 5566 5567 5567 5568 5568 5568 5567 5567 5566 5566 5566 5566 5567 5567 5568 5569 5569 5568 5568 5568 5568